This demonstration page uses our WeatherBlox Daily Observations layout. Learn more.

Left ArrowRight Arrow

Hourly Observations for July 24, 2022

Temp ( °F °C ) Dew Point ( °F °C ) Humidity (%) Winds ( mph kmh ) Pressure ( in mb ) Visibility ( mi km ) Precip ( " mm )
12:53 am 00:53 Mostly Clear 89 31.7 66 18.9 47 47 S 14 22 29.94 1014 10 16 0.00 0.00
1:53 am 01:53 Partly Cloudy 87 30.6 68 20 53 53 S 12 19 29.95 1014 10 16 0.00 0.00
2:53 am 02:53 Partly Cloudy 86 30 68 20 55 55 SSE 12 19 29.96 1015 10 16 0.00 0.00
3:53 am 03:53 Partly Cloudy 85 29.4 68 20 57 57 S 8 13 29.96 1014 10 16 0.00 0.00
4:53 am 04:53 Mostly Clear 84 28.9 69 20.6 61 61 S 6 9 29.97 1015 10 16 0.00 0.00
5:53 am 05:53 Mostly Clear 83 28.3 69 20.6 63 63 S 9 15 29.98 1015 10 16 0.00 0.00
6:53 am 06:53 Mostly Sunny 82 27.8 68 20 63 63 S 10 17 29.99 1016 10 16 0.00 0.00
7:53 am 07:53 Mostly Sunny 83 28.3 69 20.6 63 63 S 9 15 30.00 1016 10 16 0.00 0.00
8:53 am 08:53 Mostly Sunny 85 29.4 70 21.1 61 61 SSW 10 17 30.01 1016 10 16 0.00 0.00
9:53 am 09:53 Mostly Sunny 87 30.6 69 20.6 55 55 SW 14 22 30.01 1016 10 16 0.00 0.00
10:53 am 10:53 Mostly Sunny 91 32.8 68 20 47 47 SW 13 20 30.01 1016 10 16 0.00 0.00
11:53 am 11:53 Partly Cloudy 94 34.4 68 20 43 43 SW 10 17 30.01 1016 10 16 0.00 0.00
12:53 pm 12:53 Partly Cloudy 96 35.6 66 18.9 37 37 SW 8 13 29.99 1016 10 16 0.00 0.00
1:53 pm 13:53 Partly Cloudy 98 36.7 65 18.3 34 34 SSW 9 15 29.96 1015 10 16 0.00 0.00
2:53 pm 14:53 Partly Cloudy 99 37.2 65 18.3 33 33 S 8 13 29.93 1014 10 16 0.00 0.00
3:53 pm 15:53 Partly Cloudy 100 37.8 64 17.8 31 31 SSW 12 19 29.92 1013 10 16 0.00 0.00
4:53 pm 16:53 Partly Cloudy 101 38.3 64 17.8 30 30 SSW 9 15 29.90 1013 10 16 0.00 0.00
5:53 pm 17:53 Partly Cloudy 101 38.3 61 16.1 27 27 SSE 12 19 29.89 1012 10 16 0.00 0.00
6:53 pm 18:53 Mostly Sunny 100 37.8 60 15.6 27 27 S 9 15 29.88 1012 10 16 0.00 0.00
7:53 pm 19:53 Mostly Sunny 99 37.2 60 15.6 28 28 S 7 11 29.89 1012 10 16 0.00 0.00
8:53 pm 20:53 Mostly Clear 97 36.1 62 16.7 32 32 SSE 10 17 29.89 1012 10 16 0.00 0.00
9:53 pm 21:53 Clear 95 35 62 16.7 34 34 SSE 9 15 29.90 1013 10 16 0.00 0.00
10:53 pm 22:53 Clear 94 34.4 62 16.7 35 35 SE 6 9 29.91 1013 10 16 0.00 0.00
11:53 pm 23:53 Clear 93 33.9 63 17.2 37 37 SSE 6 9 29.91 1013 10 16 0.00 0.00

Powered by AerisWeather